Location: ?ern� Novina
(50.6762°N, 14.8696°E)
Time: 13:13:41
(UTC+00:00)

OBJECT-B - Pass Details

Date: 03 March 2021
Orbit: 414 x 427 km, 97.0° (Epoch: 09 April)

Event Time Altitude Azimuth Distance (km) Brightness Sun altitude
Exits shadow 18:04:51 25° 83° (E) 907 1.8 -13.4°
Maximum altitude 18:05:19 26° 68° (ENE) 884 1.9 -13.4°
Drops below altitude 10° 18:08:03 10° 10° (N) 1,515 3.5 -13.9°
Sets 18:10:15 0° 358° (N) 2,383 4.7 -14.2°
